Location: Lucerne Valley
(34.4439°N, 116.9669°E)
Time: 08:07:51
(UTC-07:00)

Tiangong 2 - Pass Details

Date: 08 October 2017
Orbit: 388 x 392 km, 42.8° (Epoch: 17 October)

Event Time Altitude Azimuth Distance (km) Brightness Sun altitude
Exits shadow 13:37:14 68° 126° (SE) 422 1.3 -20.4°
Drops below altitude 10° 13:40:16 10° 66° (ENE) 1,419 5.0 -19.8°
Sets 13:42:22 0° 64° (ENE) 2,277 6.3 -19.4°
